Regional Weather Roundup
Issued by NWS

Home | Current Version | Previous Version | Text Only | Print | Product List | Glossary On
Versions: 1 2 3 4 5 6 7 8 9 10 11 12 13 14 15 16 17 18 19 20 21 22 23 24 25 26 27 28 29 30 31 32 33 34 35 36 37 38 39 40 41 42 43 44 45 46 47 48 49 50
000
ASUS45 KREV 290110
RWRNV
NEVADA REGIONAL WEATHER ROUNDUP
NATIONAL WEATHER SERVICE RENO NV
600 PM PDT WED JUN 28 2017

NOTE: "FAIR" INDICATES FEW OR NO CLOUDS BELOW 12,000 FEET WITH NO
SIGNIFICANT WEATHER AND/OR OBSTRUCTIONS TO VISIBILITY.

NVZ001-003-004-290200-
WESTERN NEVADA

CITY           SKY/WX    TMP DP  RH WIND       PRES   REMARKS
RENO           MOSUNNY   86  33  15 NW15      29.97S
CARSON CITY    FAIR      82  28  14 SW13G18   30.01S
MINDEN         FAIR      82  30  15 NW14G20   30.01S
FALLON         MOSUNNY   90  22   8 NW8       29.89F
LOVELOCK       SUNNY     87  30  13 SW10G20   29.90F
HAWTHORNE      SUNNY     90  16   6 N13G20    29.90S
$$

NVZ002-CAZ072-073-290200-
NORTHERN AND CENTRAL SIERRA

CITY           SKY/WX    TMP DP  RH WIND       PRES   REMARKS
S. LAKE TAHOE  SUNNY     74  30  19 VRB3      30.12F
TRUCKEE        SUNNY     73  32  21 W12G18    30.11S
SQUAW VLY 8000   N/A     57  34  41 SW8         N/A
SUSANVILLE     SUNNY     84  37  18 SW15G22   29.96R
MAMMOTH LAKES  FAIR      77  33  20 W18       30.16S
BRIDGEPORT     FAIR      75  28  17 VRB6      30.12F
$$

NVZ030-031-036-290200-
NORTHERN NEVADA

CITY           SKY/WX    TMP DP  RH WIND       PRES   REMARKS
ELKO           MOSUNNY   83  26  12 W22G33    29.95S
WINNEMUCCA     MOSUNNY   86  30  13 W12       29.91F
WENDOVER       SUNNY     88  29  12 W21G26    29.84R
$$

NVZ035-037-290200-
CENTRAL NEVADA

CITY           SKY/WX    TMP DP  RH WIND       PRES   REMARKS
ELY            SUNNY     83  29  14 W14       29.98S
EUREKA           N/A     82  23  11 NW13G25   29.99S
$$

NVZ013-014-290200-
SOUTH CENTRAL NEVADA

CITY           SKY/WX    TMP DP  RH WIND       PRES   REMARKS
TONOPAH        SUNNY     87  16   7 N12       29.98F
$$

NVZ017-020-022-290200-
SOUTHERN NEVADA

CITY           SKY/WX    TMP DP  RH WIND       PRES   REMARKS
LAS VEGAS      SUNNY    104   8   3 W14       29.67F
N. LAS VEGAS   SUNNY    104  15   4 W10       29.65F
NELLIS AFB     SUNNY    105  20   5 S16       29.63F
HENDERSON      SUNNY    102  24   6 SW15      29.72F
MERCURY        SUNNY     98  20   6 SW16      29.77F
$$



USA.gov is the U.S. government's official web portal to all federal, state and local government web resources and services.